Weather History for Reggio Calabria, Italy

Change the Weather History Date:

Sunday, March 17, 2013

  Actual Average Record
Temperature  
Mean Temperature 54 °F -  
Max Temperature 59 °F 63 °F 68 °F (1997)
Min Temperature 50 °F 51 °F 44 °F (2003)
Degree Days  
Heating Degree Days 10    
Growing Degree Days 4 (Base 50)    
Moisture  
Dew Point 44 °F    
Average Humidity 67    
Maximum Humidity 82    
Minimum Humidity 55    
Precipitation  
Precipitation 0.00 in - - ()
Sea Level Pressure  
Sea Level Pressure 30.05 in    
Wind  
Wind Speed 10 mph ()    
Max Wind Speed 16 mph    
Max Gust Speed -    
Visibility 6.2 miles    
Events      
Averages and records for this station are not official NWS values.
T = Trace of Precipitation, MM = Missing Value Source: Averaged Metar Reports

Daily Weather History Graph

Daily Weather History Graph

Search for Another Location

Airport:

Trip Planner

Search our weather history database for the weather conditions in past years. The results will help you decide how hot, cold, wet, or windy it might be!

Date:

Astronomy

Mar. 17, 2013 Rise Set
Actual Time 6:05 AM CET 6:06 PM CET
Civil Twilight 5:39 AM CET 6:32 PM CET
Nautical Twilight 5:08 AM CET 7:03 PM CET
Astronomical Twilight 4:37 AM CET 7:34 PM CET
Moon 9:10 AM CET (3/17) 11:46 PM CET (3/17)
Length of Visible Light 12h 53m
Length of Day
12h 00m
Waxing Crescent, 29% of the Moon is Illuminated
Mar 17
Waxing Crescent
Mar 19
First Quarter
Mar 27
Full
Apr 3
Last Quarter
Apr 10
New

Hourly Weather History & Observations

Time (CET) Temp. Dew Point Humidity Pressure Visibility Wind Dir Wind Speed Gust Speed Precip Events Conditions
5:50 AM 50.0 °F 37.4 °F 62% 30.09 in 6.2 mi South 6.9 mph - N/A   Mostly Cloudy
6:50 AM 50.0 °F 39.2 °F 66% 30.09 in 6.2 mi SE 10.4 mph - N/A   Mostly Cloudy
7:50 AM 51.8 °F 41.0 °F 67% 30.09 in 6.2 mi SE 9.2 mph - N/A   Mostly Cloudy
8:50 AM 53.6 °F 41.0 °F 62% 30.09 in 6.2 mi SSE 10.4 mph - N/A   Scattered Clouds
9:50 AM 55.4 °F 41.0 °F 58% 30.12 in 6.2 mi South 10.4 mph - N/A   Scattered Clouds
10:50 AM 55.4 °F 42.8 °F 63% 30.09 in 6.2 mi South 10.4 mph - N/A   Scattered Clouds
11:50 AM 55.4 °F 44.6 °F 67% 30.09 in 6.2 mi South 13.8 mph - N/A   Scattered Clouds
12:50 PM 57.2 °F 46.4 °F 67% 30.06 in 6.2 mi South 12.7 mph - N/A   Scattered Clouds
1:50 PM 57.2 °F 42.8 °F 59% 30.04 in 6.2 mi South 11.5 mph - N/A   Scattered Clouds
2:50 PM 59.0 °F 42.8 °F 55% 30.04 in 6.2 mi South 12.7 mph - N/A   Scattered Clouds
3:50 PM 57.2 °F 42.8 °F 59% 30.01 in 6.2 mi South 11.5 mph - N/A   Scattered Clouds
4:50 PM 55.4 °F 44.6 °F 67% 30.01 in 6.2 mi South 11.5 mph - N/A   Scattered Clouds
5:50 PM 53.6 °F 44.6 °F 72% 30.04 in 6.2 mi SSE 12.7 mph - N/A   Scattered Clouds
6:50 PM 55.4 °F 44.6 °F 67% 30.01 in 6.2 mi SSE 16.1 mph - N/A   Scattered Clouds
7:50 PM 55.4 °F 46.4 °F 72% 30.01 in 6.2 mi SE 16.1 mph - N/A   Scattered Clouds
8:50 PM 55.4 °F 48.2 °F 77% 30.01 in 6.2 mi SSE 12.7 mph - N/A   Partly Cloudy
9:50 PM 57.2 °F 50.0 °F 77% 30.01 in 6.2 mi SSE 15.0 mph - N/A   Partly Cloudy
10:50 PM 55.4 °F 50.0 °F 82% 30.01 in 6.2 mi SSE 12.7 mph - N/A   Partly Cloudy
11:50 PM 57.2 °F 50.0 °F 77% 30.01 in 6.2 mi SSE 12.7 mph - N/A   Partly Cloudy